| time (UTC) | temp F | wind direction | speed MPH | gust MPH | rain 1hr in | rain 24hr in | rain mn in | humidity % | barometer mb |
| 20260905163056 | 87 | 191 | 2.0 | 6.0 | 0.00 | 0.00 | 0.00 | 65 | 1014.8 |
| 20260905162553 | 86 | 138 | 2.0 | 7.0 | 0.00 | 0.00 | 0.00 | 65 | 1014.7 |
| 20260905162053 | 86 | 360 | 2.0 | 9.0 | 0.00 | 0.00 | 0.00 | 66 | 1014.7 |
| 20260905161600 | 86 | 122 | 3.0 | 9.0 | 0.00 | 0.00 | 0.00 | 67 | 1014.7 |
| 20260905161053 | 85 | 176 | 3.0 | 9.0 | 0.00 | 0.00 | 0.00 | 68 | 1014.7 |
| 20260905160555 | 85 | 153 | 3.0 | 9.0 | 0.00 | 0.00 | 0.00 | 68 | 1014.6 |
| 20260905160122 | 85 | 169 | 4.0 | 8.0 | 0.00 | 0.00 | 0.00 | 67 | 1014.8 |
| 20260905155553 | 85 | 198 | 3.0 | 7.0 | 0.00 | 0.00 | 0.00 | 68 | 1014.9 |
| 20260905155052 | 84 | 159 | 2.0 | 10.0 | 0.00 | 0.00 | 0.00 | 67 | 1015.1 |
| 20260905154601 | 84 | 222 | 2.0 | 10.0 | 0.00 | 0.00 | 0.00 | 68 | 1015.3 |
| 20260905154054 | 84 | 195 | 2.0 | 6.0 | 0.00 | 0.00 | 0.00 | 68 | 1015.2 |
| 20260905153552 | 83 | 119 | 1.0 | 8.0 | 0.00 | 0.00 | 0.00 | 70 | 1015.1 |
| 20260905153112 | 83 | 0 | 1.0 | 8.0 | 0.00 | 0.00 | 0.00 | 69 | 1015.1 |
| 20260905152553 | 82 | 265 | 1.0 | 8.0 | 0.00 | 0.00 | 0.00 | 72 | 1015.1 |
| 20260905152056 | 82 | 181 | 2.0 | 9.0 | 0.00 | 0.00 | 0.00 | 70 | 1015.1 |
| 20260905151609 | 82 | 143 | 3.0 | 9.0 | 0.00 | 0.00 | 0.00 | 71 | 1015.0 |
| 20260905151052 | 81 | 179 | 3.0 | 8.0 | 0.00 | 0.00 | 0.00 | 71 | 1015.0 |
| 20260905150552 | 81 | 158 | 2.0 | 9.0 | 0.00 | 0.00 | 0.00 | 71 | 1015.0 |
| 20260905150057 | 81 | 203 | 4.0 | 9.0 | 0.00 | 0.00 | 0.00 | 71 | 1015.0 |
| 20260905145552 | 81 | 171 | 5.0 | 9.0 | 0.00 | 0.00 | 0.00 | 72 | 1015.1 |
| 20260905145055 | 80 | 148 | 3.0 | 8.0 | 0.00 | 0.00 | 0.00 | 76 | 1015.2 |
| 20260905144556 | 80 | 150 | 2.0 | 8.0 | 0.00 | 0.00 | 0.00 | 75 | 1015.3 |
| 20260905144052 | 80 | 184 | 3.0 | 8.0 | 0.00 | 0.00 | 0.00 | 75 | 1015.3 |
| 20260905143552 | 79 | 150 | 1.0 | 8.0 | 0.00 | 0.00 | 0.00 | 75 | 1015.4 |
| 20260905143107 | 79 | 105 | 4.0 | 8.0 | 0.00 | 0.00 | 0.00 | 76 | 1015.6 |
| 20260905142556 | 79 | 122 | 1.0 | 9.0 | 0.00 | 0.00 | 0.00 | 77 | 1015.5 |
| 20260905142054 | 79 | 243 | 4.0 | 11.0 | 0.00 | 0.00 | 0.00 | 76 | 1015.3 |
| 20260905141600 | 79 | 144 | 4.0 | 11.0 | 0.00 | 0.00 | 0.00 | 75 | 1015.3 |
| 20260905141052 | 79 | 186 | 2.0 | 6.0 | 0.00 | 0.00 | 0.00 | 76 | 1015.3 |
| 20260905140554 | 79 | 230 | 2.0 | 7.0 | 0.00 | 0.00 | 0.00 | 78 | 1015.3 |
| 20260905140106 | 78 | 214 | 0.0 | 7.0 | 0.00 | 0.00 | 0.00 | 79 | 1015.5 |
| 20260905135554 | 78 | 113 | 3.0 | 15.0 | 0.00 | 0.00 | 0.00 | 78 | 1015.5 |
| 20260905135054 | 78 | 187 | 3.0 | 15.0 | 0.00 | 0.00 | 0.00 | 78 | 1015.4 |
| 20260905134605 | 78 | 137 | 1.0 | 10.0 | 0.00 | 0.00 | 0.00 | 80 | 1015.3 |
| 20260905134053 | 78 | 0 | 1.0 | 10.0 | 0.00 | 0.00 | 0.00 | 81 | 1015.4 |
| 20260905133553 | 78 | 0 | 3.0 | 10.0 | 0.00 | 0.00 | 0.00 | 81 | 1015.4 |
| 20260905133107 | 78 | 0 | 2.0 | 12.0 | 0.00 | 0.00 | 0.00 | 84 | 1015.3 |
| 20260905132553 | 77 | 104 | 3.0 | 12.0 | 0.00 | 0.00 | 0.00 | 84 | 1015.2 |
| 20260905132055 | 77 | 162 | 4.0 | 12.0 | 0.00 | 0.00 | 0.00 | 84 | 1015.3 |
| 20260905131610 | 77 | 81 | 4.0 | 12.0 | 0.00 | 0.00 | 0.00 | 84 | 1015.5 |
| 20260905131053 | 77 | 156 | 4.0 | 14.0 | 0.00 | 0.00 | 0.00 | 84 | 1015.7 |
| 20260905130553 | 77 | 157 | 4.0 | 14.0 | 0.00 | 0.00 | 0.00 | 84 | 1015.5 |
| 20260905130115 | 77 | 0 | 3.0 | 8.0 | 0.00 | 0.00 | 0.00 | 86 | 1015.4 |
| 20260905125553 | 77 | 122 | 2.0 | 13.0 | 0.00 | 0.00 | 0.00 | 89 | 1015.3 |
| 20260905125053 | 76 | 6 | 4.0 | 13.0 | 0.00 | 0.00 | 0.00 | 90 | 1015.3 |
| 20260905124602 | 76 | 111 | 4.0 | 9.0 | 0.00 | 0.00 | 0.00 | 93 | 1015.3 |
| 20260905124054 | 75 | 46 | 2.0 | 8.0 | 0.00 | 0.00 | 0.00 | 94 | 1015.4 |
| 20260905123554 | 75 | 127 | 1.0 | 8.0 | 0.00 | 0.00 | 0.00 | 95 | 1014.9 |
| 20260905123104 | 74 | 72 | 2.0 | 12.0 | 0.00 | 0.00 | 0.00 | 96 | 1015.2 |
| 20260905122553 | 74 | 64 | 5.0 | 12.0 | 0.00 | 0.00 | 0.00 | 97 | 1015.0 |
| 20260905122054 | 73 | 80 | 3.0 | 10.0 | 0.00 | 0.00 | 0.00 | 98 | 1015.1 |
| 20260905121602 | 73 | 0 | 0.0 | 0.0 | 0.00 | 0.00 | 0.00 | 97 | 1014.4 |
| 20260905121053 | 73 | 0 | 0.0 | 0.0 | 0.00 | 0.00 | 0.00 | 97 | 1014.2 |
| 20260905120555 | 73 | 0 | 0.0 | 0.0 | 0.00 | 0.00 | 0.00 | 97 | 1014.2 |
| 20260905120114 | 73 | 0 | 0.0 | 0.0 | 0.00 | 0.00 | 0.00 | 97 | 1014.1 |
| 20260905115557 | 73 | 0 | 0.0 | 1.0 | 0.00 | 0.00 | 0.00 | 97 | 1014.1 |
| 20260905115054 | 73 | 0 | 0.0 | 1.0 | 0.00 | 0.00 | 0.00 | 97 | 1014.0 |
| 20260905114604 | 73 | 0 | 0.0 | 0.0 | 0.00 | 0.00 | 0.00 | 96 | 1013.9 |
| 20260905114053 | 73 | 0 | 0.0 | 0.0 | 0.00 | 0.00 | 0.00 | 96 | 1013.9 |
| 20260905113554 | 73 | 0 | 0.0 | 0.0 | 0.00 | 0.00 | 0.00 | 96 | 1013.9 |
| 20260905113106 | 73 | 0 | 0.0 | 0.0 | 0.00 | 0.00 | 0.00 | 96 | 1013.9 |
| 20260905112558 | 73 | 0 | 0.0 | 0.0 | 0.00 | 0.00 | 0.00 | 96 | 1013.8 |
| 20260905112053 | 73 | 0 | 0.0 | 0.0 | 0.00 | 0.00 | 0.00 | 97 | 1013.6 |
| 20260905111612 | 73 | 0 | 0.0 | 0.0 | 0.00 | 0.00 | 0.00 | 97 | 1013.7 |
| 20260905111053 | 73 | 0 | 0.0 | 1.0 | 0.00 | 0.00 | 0.00 | 96 | 1013.5 |
| 20260905110558 | 73 | 0 | 0.0 | 1.0 | 0.00 | 0.00 | 0.00 | 96 | 1013.5 |
| 20260905110100 | 73 | 0 | 0.0 | 1.0 | 0.00 | 0.00 | 0.00 | 96 | 1013.4 |
| 20260905105553 | 74 | 0 | 0.0 | 1.0 | 0.00 | 0.00 | 0.00 | 96 | 1013.5 |
| 20260905105052 | 74 | 0 | 0.0 | 0.0 | 0.00 | 0.00 | 0.00 | 96 | 1013.5 |
| 20260905104558 | 74 | 0 | 0.0 | 0.0 | 0.00 | 0.00 | 0.00 | 96 | 1013.5 |
| 20260905104052 | 74 | 0 | 0.0 | 1.0 | 0.00 | 0.00 | 0.00 | 96 | 1013.6 |
| 20260905103552 | 74 | 0 | 0.0 | 1.0 | 0.00 | 0.00 | 0.00 | 96 | 1013.6 |
| 20260905103057 | 74 | 0 | 0.0 | 0.0 | 0.00 | 0.00 | 0.00 | 96 | 1013.7 |
| 20260905102554 | 74 | 0 | 0.0 | 1.0 | 0.00 | 0.00 | 0.00 | 96 | 1013.7 |
| 20260905102053 | 74 | 0 | 0.0 | 1.0 | 0.00 | 0.00 | 0.00 | 96 | 1013.7 |
| 20260905101606 | 74 | 0 | 0.0 | 1.0 | 0.00 | 0.00 | 0.00 | 96 | 1013.7 |
| 20260905101053 | 74 | 0 | 0.0 | 0.0 | 0.00 | 0.00 | 0.00 | 96 | 1013.7 |
| 20260905100553 | 74 | 0 | 0.0 | 0.0 | 0.00 | 0.00 | 0.00 | 96 | 1013.8 |
| 20260905100057 | 74 | 0 | 0.0 | 0.0 | 0.00 | 0.00 | 0.00 | 96 | 1013.6 |
| 20260905095552 | 74 | 0 | 0.0 | 0.0 | 0.00 | 0.00 | 0.00 | 96 | 1013.6 |
| 20260905095055 | 74 | 0 | 0.0 | 0.0 | 0.00 | 0.00 | 0.00 | 96 | 1013.6 |
| 20260905094556 | 74 | 0 | 0.0 | 0.0 | 0.00 | 0.00 | 0.00 | 97 | 1013.5 |
| 20260905094052 | 74 | 0 | 0.0 | 0.0 | 0.00 | 0.00 | 0.00 | 96 | 1013.5 |
| 20260905093552 | 74 | 0 | 0.0 | 1.0 | 0.00 | 0.00 | 0.00 | 96 | 1013.4 |
| 20260905093101 | 74 | 0 | 0.0 | 1.0 | 0.00 | 0.00 | 0.00 | 96 | 1013.4 |
| 20260905092555 | 74 | 0 | 0.0 | 1.0 | 0.00 | 0.00 | 0.00 | 96 | 1013.4 |
| 20260905092054 | 74 | 0 | 0.0 | 1.0 | 0.00 | 0.00 | 0.00 | 96 | 1013.4 |
| 20260905091558 | 74 | 0 | 0.0 | 0.0 | 0.00 | 0.00 | 0.00 | 96 | 1013.4 |
| 20260905091052 | 74 | 0 | 0.0 | 1.0 | 0.00 | 0.00 | 0.00 | 96 | 1013.4 |
| 20260905090552 | 74 | 0 | 0.0 | 1.0 | 0.00 | 0.00 | 0.00 | 96 | 1013.4 |
| 20260905090056 | 75 | 0 | 0.0 | 0.0 | 0.00 | 0.00 | 0.00 | 96 | 1013.3 |
| 20260905085553 | 75 | 0 | 0.0 | 1.0 | 0.00 | 0.00 | 0.00 | 96 | 1013.3 |
| 20260905085052 | 75 | 0 | 0.0 | 1.0 | 0.00 | 0.00 | 0.00 | 96 | 1013.2 |
| 20260905084616 | 75 | 271 | 0.0 | 1.0 | 0.00 | 0.00 | 0.00 | 96 | 1013.2 |
| 20260905084052 | 75 | 0 | 0.0 | 1.0 | 0.00 | 0.00 | 0.00 | 97 | 1013.1 |
| 20260905083553 | 75 | 0 | 0.0 | 0.0 | 0.00 | 0.00 | 0.00 | 97 | 1013.0 |
| 20260905083058 | 75 | 0 | 0.0 | 0.0 | 0.00 | 0.00 | 0.00 | 97 | 1013.0 |
| 20260905082554 | 75 | 0 | 0.0 | 1.0 | 0.00 | 0.00 | 0.00 | 97 | 1013.0 |
| 20260905082053 | 75 | 0 | 0.0 | 1.0 | 0.00 | 0.00 | 0.00 | 97 | 1012.9 |
| 20260905081605 | 74 | 0 | 0.0 | 1.0 | 0.00 | 0.00 | 0.00 | 96 | 1012.9 |
| 20260905081052 | 75 | 0 | 0.0 | 0.0 | 0.00 | 0.00 | 0.00 | 96 | 1012.9 |
| 20260905080552 | 75 | 0 | 0.0 | 0.0 | 0.00 | 0.00 | 0.00 | 96 | 1012.9 |
| 20260905080057 | 74 | 0 | 0.0 | 0.0 | 0.00 | 0.00 | 0.00 | 96 | 1012.9 |
| 20260905075557 | 75 | 0 | 0.0 | 0.0 | 0.00 | 0.00 | 0.00 | 96 | 1012.9 |
| 20260905075054 | 75 | 0 | 0.0 | 0.0 | 0.00 | 0.00 | 0.00 | 96 | 1012.9 |
| 20260905074606 | 75 | 0 | 0.0 | 1.0 | 0.00 | 0.00 | 0.00 | 96 | 1012.8 |
| 20260905074053 | 75 | 0 | 0.0 | 1.0 | 0.00 | 0.00 | 0.00 | 96 | 1012.8 |
| 20260905073553 | 75 | 271 | 0.0 | 0.0 | 0.00 | 0.00 | 0.00 | 96 | 1012.8 |
| 20260905073105 | 75 | 0 | 0.0 | 0.0 | 0.00 | 0.00 | 0.00 | 96 | 1012.8 |
| 20260905072553 | 75 | 0 | 0.0 | 1.0 | 0.00 | 0.00 | 0.00 | 96 | 1012.9 |
| 20260905072054 | 75 | 0 | 0.0 | 1.0 | 0.00 | 0.00 | 0.00 | 96 | 1012.9 |
| 20260905071608 | 75 | 0 | 0.0 | 1.0 | 0.00 | 0.00 | 0.00 | 96 | 1013.1 |
| 20260905071056 | 75 | 0 | 0.0 | 0.0 | 0.00 | 0.00 | 0.00 | 95 | 1013.1 |
| 20260905070553 | 75 | 0 | 0.0 | 0.0 | 0.00 | 0.00 | 0.00 | 96 | 1013.2 |
| 20260905070106 | 75 | 0 | 0.0 | 0.0 | 0.00 | 0.00 | 0.00 | 96 | 1013.3 |
| 20260905065553 | 75 | 0 | 0.0 | 0.0 | 0.00 | 0.00 | 0.00 | 95 | 1013.4 |
| 20260905065057 | 75 | 0 | 0.0 | 0.0 | 0.00 | 0.00 | 0.00 | 95 | 1013.5 |
| 20260905064602 | 75 | 0 | 0.0 | 1.0 | 0.00 | 0.00 | 0.00 | 95 | 1013.5 |
| 20260905064055 | 75 | 0 | 0.0 | 1.0 | 0.00 | 0.00 | 0.00 | 95 | 1013.5 |
| 20260905063553 | 75 | 0 | 0.0 | 0.0 | 0.00 | 0.00 | 0.00 | 95 | 1013.5 |
| 20260905063104 | 75 | 0 | 0.0 | 0.0 | 0.00 | 0.00 | 0.00 | 95 | 1013.6 |
| 20260905062556 | 75 | 0 | 0.0 | 0.0 | 0.00 | 0.00 | 0.00 | 95 | 1013.6 |
| 20260905062055 | 75 | 0 | 0.0 | 0.0 | 0.00 | 0.00 | 0.00 | 95 | 1013.7 |
| 20260905061611 | 75 | 0 | 0.0 | 0.0 | 0.00 | 0.00 | 0.00 | 95 | 1013.7 |
| 20260905061053 | 76 | 0 | 0.0 | 1.0 | 0.00 | 0.00 | 0.00 | 95 | 1013.8 |
| 20260905060556 | 76 | 0 | 0.0 | 1.0 | 0.00 | 0.00 | 0.00 | 95 | 1013.8 |
| 20260905060105 | 76 | 0 | 0.0 | 1.0 | 0.00 | 0.00 | 0.00 | 94 | 1013.8 |
| 20260905055554 | 76 | 0 | 0.0 | 0.0 | 0.00 | 0.00 | 0.00 | 94 | 1013.8 |
| 20260905055055 | 76 | 0 | 0.0 | 1.0 | 0.00 | 0.00 | 0.00 | 94 | 1013.8 |
| 20260905054603 | 76 | 0 | 0.0 | 2.0 | 0.00 | 0.00 | 0.00 | 94 | 1013.9 |
| 20260905054053 | 76 | 0 | 0.0 | 2.0 | 0.00 | 0.00 | 0.00 | 94 | 1013.9 |
| 20260905053553 | 76 | 271 | 0.0 | 2.0 | 0.00 | 0.00 | 0.00 | 94 | 1014.0 |
| 20260905053141 | 76 | 271 | 0.0 | 1.0 | 0.00 | 0.00 | 0.00 | 95 | 1014.0 |
| 20260905052554 | 76 | 0 | 0.0 | 0.0 | 0.00 | 0.00 | 0.00 | 95 | 1013.9 |
| 20260905052053 | 76 | 0 | 0.0 | 1.0 | 0.00 | 0.00 | 0.00 | 94 | 1013.9 |
| 20260905051601 | 76 | 0 | 0.0 | 2.0 | 0.00 | 0.00 | 0.00 | 94 | 1013.9 |
| 20260905051052 | 76 | 271 | 0.0 | 2.0 | 0.00 | 0.00 | 0.00 | 94 | 1014.0 |
| 20260905050552 | 76 | 271 | 1.0 | 2.0 | 0.00 | 0.00 | 0.00 | 94 | 1014.0 |
| 20260905050100 | 76 | 271 | 0.0 | 1.0 | 0.00 | 0.00 | 0.00 | 94 | 1014.0 |
| 20260905045555 | 76 | 0 | 0.0 | 0.0 | 0.00 | 0.00 | 0.00 | 93 | 1014.2 |
| 20260905045053 | 76 | 0 | 0.0 | 1.0 | 0.00 | 0.00 | 0.00 | 93 | 1014.3 |
| 20260905044602 | 76 | 0 | 0.0 | 1.0 | 0.00 | 0.00 | 0.00 | 93 | 1014.3 |
| 20260905044053 | 76 | 0 | 0.0 | 1.0 | 0.00 | 0.00 | 0.00 | 93 | 1014.3 |
| 20260905043553 | 76 | 0 | 0.0 | 0.0 | 0.00 | 0.00 | 0.00 | 93 | 1014.3 |
| 20260905043100 | 76 | 0 | 0.0 | 1.0 | 0.00 | 0.00 | 0.00 | 93 | 1014.3 |
| 20260905042552 | 76 | 0 | 0.0 | 1.0 | 0.00 | 0.00 | 0.00 | 93 | 1014.3 |
| 20260905042055 | 77 | 0 | 0.0 | 0.0 | 0.00 | 0.00 | 0.00 | 92 | 1014.4 |
| 20260905041604 | 77 | 0 | 0.0 | 0.0 | 0.00 | 0.00 | 0.00 | 92 | 1014.4 |
| 20260905041052 | 76 | 0 | 0.0 | 0.0 | 0.00 | 0.00 | 0.00 | 92 | 1014.4 |
| 20260905040556 | 77 | 0 | 0.0 | 1.0 | 0.00 | 0.00 | 0.00 | 92 | 1014.4 |
| 20260905040104 | 77 | 0 | 0.0 | 1.0 | 0.00 | 0.00 | 0.00 | 91 | 1014.4 |
| 20260905035553 | 77 | 0 | 0.0 | 1.0 | 0.00 | 0.00 | 0.00 | 91 | 1014.3 |
| 20260905035053 | 77 | 0 | 0.0 | 2.0 | 0.00 | 0.00 | 0.00 | 91 | 1014.3 |
| 20260905034603 | 77 | 0 | 0.0 | 2.0 | 0.00 | 0.00 | 0.00 | 91 | 1014.4 |
| 20260905034053 | 77 | 344 | 0.0 | 1.0 | 0.00 | 0.00 | 0.00 | 91 | 1014.4 |
| 20260905033557 | 77 | 0 | 0.0 | 1.0 | 0.00 | 0.00 | 0.00 | 91 | 1014.4 |
| 20260905033106 | 77 | 0 | 0.0 | 1.0 | 0.00 | 0.00 | 0.00 | 91 | 1014.5 |
| 20260905032553 | 77 | 0 | 0.0 | 2.0 | 0.00 | 0.00 | 0.00 | 90 | 1014.4 |
| 20260905032054 | 77 | 0 | 0.0 | 2.0 | 0.00 | 0.00 | 0.00 | 90 | 1014.4 |
| 20260905031557 | 77 | 0 | 1.0 | 2.0 | 0.00 | 0.00 | 0.00 | 90 | 1014.4 |
| 20260905031053 | 77 | 0 | 0.0 | 1.0 | 0.00 | 0.00 | 0.00 | 90 | 1014.4 |
| 20260905030553 | 77 | 0 | 0.0 | 1.0 | 0.00 | 0.00 | 0.00 | 90 | 1014.4 |
| 20260905030107 | 78 | 0 | 0.0 | 1.0 | 0.00 | 0.00 | 0.00 | 89 | 1014.3 |
| 20260905025553 | 78 | 0 | 0.0 | 1.0 | 0.00 | 0.00 | 0.00 | 89 | 1014.4 |
| 20260905025053 | 78 | 0 | 0.0 | 0.0 | 0.00 | 0.00 | 0.00 | 89 | 1014.4 |
| 20260905024618 | 78 | 0 | 0.0 | 0.0 | 0.00 | 0.00 | 0.00 | 89 | 1014.2 |
| 20260905024054 | 78 | 0 | 0.0 | 0.0 | 0.00 | 0.00 | 0.00 | 89 | 1014.3 |
| 20260905023553 | 78 | 0 | 0.0 | 1.0 | 0.00 | 0.00 | 0.00 | 89 | 1014.4 |
| 20260905023124 | 78 | 0 | 0.0 | 1.0 | 0.00 | 0.00 | 0.00 | 89 | 1014.4 |
| 20260905022552 | 78 | 0 | 0.0 | 0.0 | 0.00 | 0.00 | 0.00 | 88 | 1014.4 |
| 20260905022052 | 78 | 0 | 0.0 | 0.0 | 0.00 | 0.00 | 0.00 | 88 | 1014.3 |
| 20260905021617 | 79 | 0 | 0.0 | 0.0 | 0.00 | 0.00 | 0.00 | 88 | 1014.2 |
| 20260905021052 | 79 | 0 | 0.0 | 0.0 | 0.00 | 0.00 | 0.00 | 88 | 1014.2 |
| 20260905020552 | 79 | 0 | 0.0 | 1.0 | 0.00 | 0.00 | 0.00 | 88 | 1014.2 |
| 20260905020110 | 79 | 0 | 0.0 | 1.0 | 0.00 | 0.00 | 0.00 | 88 | 1014.2 |
| 20260905015555 | 79 | 0 | 0.0 | 1.0 | 0.00 | 0.00 | 0.00 | 88 | 1014.2 |
| 20260905015053 | 79 | 0 | 0.0 | 1.0 | 0.00 | 0.00 | 0.00 | 87 | 1014.2 |
| 20260905014605 | 80 | 0 | 0.0 | 1.0 | 0.00 | 0.00 | 0.00 | 86 | 1014.2 |
| 20260905014054 | 80 | 0 | 0.0 | 1.0 | 0.00 | 0.00 | 0.00 | 87 | 1014.0 |
| 20260905013552 | 80 | 0 | 0.0 | 1.0 | 0.00 | 0.00 | 0.00 | 87 | 1014.0 |
| 20260905013104 | 80 | 0 | 0.0 | 0.0 | 0.00 | 0.00 | 0.00 | 87 | 1013.9 |
| 20260905012554 | 80 | 0 | 0.0 | 1.0 | 0.00 | 0.00 | 0.00 | 86 | 1013.8 |
| 20260905012053 | 81 | 0 | 0.0 | 1.0 | 0.00 | 0.00 | 0.00 | 86 | 1013.8 |
| 20260905011605 | 81 | 0 | 0.0 | 0.0 | 0.00 | 0.00 | 0.00 | 85 | 1013.8 |
| 20260905011054 | 81 | 0 | 0.0 | 1.0 | 0.00 | 0.00 | 0.00 | 85 | 1013.9 |
| 20260905010553 | 82 | 0 | 0.0 | 1.0 | 0.00 | 0.00 | 0.00 | 84 | 1013.9 |
| 20260905005553 | 82 | 0 | 0.0 | 1.0 | 0.00 | 0.00 | 0.00 | 83 | 1013.9 |
| 20260905005053 | 83 | 0 | 0.0 | 1.0 | 0.00 | 0.00 | 0.00 | 83 | 1013.8 |
| 20260905004603 | 83 | 0 | 0.0 | 1.0 | 0.00 | 0.00 | 0.00 | 83 | 1013.7 |
| 20260905004052 | 83 | 0 | 0.0 | 1.0 | 0.00 | 0.00 | 0.00 | 82 | 1013.7 |
| 20260905003553 | 84 | 0 | 0.0 | 1.0 | 0.00 | 0.00 | 0.00 | 82 | 1013.6 |
| 20260905003101 | 84 | 0 | 0.0 | 0.0 | 0.00 | 0.00 | 0.00 | 82 | 1013.6 |
| 20260905002558 | 85 | 0 | 0.0 | 1.0 | 0.00 | 0.00 | 0.00 | 81 | 1013.6 |
| 20260905002053 | 85 | 0 | 0.0 | 1.0 | 0.00 | 0.00 | 0.00 | 79 | 1013.6 |
| 20260905001603 | 86 | 0 | 0.0 | 1.0 | 0.00 | 0.00 | 0.00 | 79 | 1013.6 |
| 20260905001053 | 86 | 0 | 0.0 | 1.0 | 0.00 | 0.00 | 0.00 | 79 | 1013.5 |
| 20260905000554 | 87 | 0 | 0.0 | 1.0 | 0.00 | 0.00 | 0.00 | 78 | 1013.5 |
| 20260905000105 | 87 | 0 | 0.0 | 0.0 | 0.00 | 0.00 | 0.00 | 78 | 1013.4 |
| 20260904235555 | 88 | 0 | 0.0 | 1.0 | 0.00 | 0.00 | 0.00 | 77 | 1013.5 |
| 20260904235052 | 88 | 0 | 0.0 | 1.0 | 0.00 | 0.00 | 0.00 | 76 | 1013.5 |
| 20260904234559 | 89 | 0 | 0.0 | 1.0 | 0.00 | 0.00 | 0.00 | 74 | 1013.5 |
| 20260904234052 | 89 | 0 | 0.0 | 1.0 | 0.00 | 0.00 | 0.00 | 73 | 1013.4 |
| 20260904233554 | 89 | 0 | 0.0 | 1.0 | 0.00 | 0.00 | 0.00 | 72 | 1013.4 |
| 20260904233058 | 90 | 0 | 0.0 | 1.0 | 0.00 | 0.00 | 0.00 | 69 | 1013.4 |
| 20260904232554 | 90 | 0 | 0.0 | 2.0 | 0.00 | 0.00 | 0.00 | 68 | 1013.4 |
| 20260904232053 | 90 | 0 | 0.0 | 2.0 | 0.00 | 0.00 | 0.00 | 67 | 1013.3 |
| 20260904231608 | 90 | 244 | 0.0 | 2.0 | 0.00 | 0.00 | 0.00 | 65 | 1013.3 |
| 20260904231053 | 91 | 263 | 0.0 | 2.0 | 0.00 | 0.00 | 0.00 | 65 | 1013.3 |
| 20260904230555 | 91 | 0 | 0.0 | 2.0 | 0.00 | 0.00 | 0.00 | 63 | 1013.3 |
| 20260904230107 | 91 | 0 | 0.0 | 2.0 | 0.00 | 0.00 | 0.00 | 63 | 1013.4 |
| 20260904225552 | 91 | 0 | 0.0 | 2.0 | 0.00 | 0.00 | 0.00 | 62 | 1013.4 |
| 20260904225056 | 92 | 0 | 0.0 | 1.0 | 0.00 | 0.00 | 0.00 | 62 | 1013.5 |
| 20260904224607 | 92 | 280 | 0.0 | 4.0 | 0.00 | 0.00 | 0.00 | 60 | 1013.5 |
| 20260904224053 | 92 | 0 | 0.0 | 4.0 | 0.00 | 0.00 | 0.00 | 60 | 1013.5 |
| 20260904223554 | 92 | 311 | 2.0 | 4.0 | 0.00 | 0.00 | 0.00 | 59 | 1013.5 |
| 20260904223104 | 92 | 322 | 0.0 | 2.0 | 0.00 | 0.00 | 0.00 | 60 | 1013.5 |
| 20260904222553 | 92 | 0 | 0.0 | 3.0 | 0.00 | 0.00 | 0.00 | 61 | 1013.5 |
| 20260904222053 | 93 | 0 | 1.0 | 3.0 | 0.00 | 0.00 | 0.00 | 61 | 1013.5 |
| 20260904221607 | 93 | 0 | 0.0 | 4.0 | 0.00 | 0.00 | 0.00 | 59 | 1013.5 |
| 20260904221053 | 93 | 0 | 0.0 | 4.0 | 0.00 | 0.00 | 0.00 | 59 | 1013.5 |
| 20260904220553 | 93 | 313 | 0.0 | 3.0 | 0.00 | 0.00 | 0.00 | 56 | 1013.5 |
| 20260904220113 | 93 | 0 | 0.0 | 2.0 | 0.00 | 0.00 | 0.00 | 58 | 1013.5 |
| 20260904215553 | 93 | 213 | 0.0 | 2.0 | 0.00 | 0.00 | 0.00 | 57 | 1013.5 |
| 20260904215053 | 94 | 0 | 0.0 | 3.0 | 0.00 | 0.00 | 0.00 | 56 | 1013.6 |
| 20260904214605 | 94 | 0 | 0.0 | 4.0 | 0.00 | 0.00 | 0.00 | 56 | 1013.7 |
| 20260904214053 | 94 | 0 | 0.0 | 6.0 | 0.00 | 0.00 | 0.00 | 55 | 1013.8 |
| 20260904213552 | 95 | 321 | 3.0 | 7.0 | 0.00 | 0.00 | 0.00 | 54 | 1013.8 |
| 20260904213104 | 95 | 312 | 3.0 | 7.0 | 0.00 | 0.00 | 0.00 | 55 | 1013.8 |
| 20260904212553 | 95 | 332 | 1.0 | 9.0 | 0.00 | 0.00 | 0.00 | 55 | 1013.8 |
| 20260904212054 | 95 | 320 | 3.0 | 9.0 | 0.00 | 0.00 | 0.00 | 54 | 1013.9 |
| 20260904211604 | 96 | 328 | 0.0 | 6.0 | 0.00 | 0.00 | 0.00 | 54 | 1014.0 |
| 20260904211053 | 97 | 0 | 1.0 | 6.0 | 0.00 | 0.00 | 0.00 | 53 | 1014.1 |
| 20260904210553 | 97 | 0 | 1.0 | 7.0 | 0.00 | 0.00 | 0.00 | 51 | 1014.0 |
| 20260904210107 | 98 | 324 | 3.0 | 8.0 | 0.00 | 0.00 | 0.00 | 50 | 1014.1 |
| 20260904205554 | 98 | 359 | 3.0 | 8.0 | 0.00 | 0.00 | 0.00 | 50 | 1014.2 |
| 20260904205052 | 98 | 309 | 2.0 | 7.0 | 0.00 | 0.00 | 0.00 | 50 | 1014.2 |
| 20260904204605 | 99 | 341 | 2.0 | 7.0 | 0.00 | 0.00 | 0.00 | 50 | 1014.2 |
| 20260904204053 | 99 | 270 | 2.0 | 6.0 | 0.00 | 0.00 | 0.00 | 50 | 1014.3 |
| 20260904203554 | 99 | 304 | 2.0 | 5.0 | 0.00 | 0.00 | 0.00 | 50 | 1014.3 |
| 20260904203101 | 99 | 285 | 0.0 | 4.0 | 0.00 | 0.00 | 0.00 | 51 | 1014.4 |
| 20260904202554 | 99 | 0 | 0.0 | 6.0 | 0.00 | 0.00 | 0.00 | 51 | 1014.4 |
| 20260904202052 | 99 | 276 | 0.0 | 6.0 | 0.00 | 0.00 | 0.00 | 51 | 1014.5 |
| 20260904201626 | 99 | 0 | 1.0 | 6.0 | 0.00 | 0.00 | 0.00 | 51 | 1014.5 |
| 20260904201052 | 99 | 271 | 1.0 | 4.0 | 0.00 | 0.00 | 0.00 | 54 | 1014.5 |
| 20260904200553 | 98 | 279 | 1.0 | 5.0 | 0.00 | 0.00 | 0.00 | 53 | 1014.6 |
| 20260904200122 | 98 | 274 | 1.0 | 7.0 | 0.00 | 0.00 | 0.00 | 53 | 1014.7 |
| 20260904195553 | 98 | 288 | 3.0 | 7.0 | 0.00 | 0.00 | 0.00 | 53 | 1014.7 |
| 20260904195053 | 98 | 333 | 2.0 | 8.0 | 0.00 | 0.00 | 0.00 | 53 | 1014.8 |
| 20260904194610 | 98 | 0 | 2.0 | 8.0 | 0.00 | 0.00 | 0.00 | 52 | 1015.0 |
| 20260904194053 | 98 | 274 | 0.0 | 9.0 | 0.00 | 0.00 | 0.00 | 51 | 1015.0 |
| 20260904193553 | 98 | 340 | 3.0 | 9.0 | 0.00 | 0.00 | 0.00 | 51 | 1015.1 |
| 20260904193106 | 98 | 332 | 1.0 | 5.0 | 0.00 | 0.00 | 0.00 | 54 | 1015.2 |
| 20260904192552 | 98 | 0 | 0.0 | 4.0 | 0.00 | 0.00 | 0.00 | 54 | 1015.2 |
| 20260904192053 | 97 | 193 | 1.0 | 4.0 | 0.00 | 0.00 | 0.00 | 54 | 1015.4 |
| 20260904191559 | 98 | 178 | 1.0 | 8.0 | 0.00 | 0.00 | 0.00 | 53 | 1015.4 |
| 20260904191053 | 97 | 0 | 1.0 | 8.0 | 0.00 | 0.00 | 0.00 | 55 | 1015.5 |
| 20260904190553 | 97 | 333 | 3.0 | 7.0 | 0.00 | 0.00 | 0.00 | 53 | 1015.5 |
| 20260904190110 | 97 | 0 | 1.0 | 6.0 | 0.00 | 0.00 | 0.00 | 55 | 1015.6 |
| 20260904185557 | 97 | 158 | 2.0 | 8.0 | 0.00 | 0.00 | 0.00 | 55 | 1015.7 |
| 20260904185056 | 97 | 243 | 1.0 | 10.0 | 0.00 | 0.00 | 0.00 | 55 | 1015.7 |
| 20260904184605 | 97 | 283 | 5.0 | 10.0 | 0.00 | 0.00 | 0.00 | 55 | 1015.8 |
| 20260904184053 | 97 | 0 | 1.0 | 6.0 | 0.00 | 0.00 | 0.00 | 55 | 1015.8 |
| 20260904183556 | 97 | 285 | 2.0 | 6.0 | 0.00 | 0.00 | 0.00 | 58 | 1015.8 |
| 20260904183101 | 96 | 253 | 1.0 | 6.0 | 0.00 | 0.00 | 0.00 | 58 | 1015.8 |
| 20260904182552 | 96 | 255 | 2.0 | 6.0 | 0.00 | 0.00 | 0.00 | 59 | 1015.9 |
| 20260904182053 | 96 | 330 | 1.0 | 6.0 | 0.00 | 0.00 | 0.00 | 57 | 1016.0 |
| 20260904181603 | 96 | 296 | 3.0 | 6.0 | 0.00 | 0.00 | 0.00 | 56 | 1016.0 |
| 20260904181055 | 96 | 304 | 1.0 | 6.0 | 0.00 | 0.00 | 0.00 | 57 | 1016.1 |
| 20260904180554 | 96 | 120 | 0.0 | 6.0 | 0.00 | 0.00 | 0.00 | 54 | 1016.1 |
| 20260904175552 | 96 | 290 | 1.0 | 7.0 | 0.00 | 0.00 | 0.00 | 59 | 1016.3 |
| 20260904175052 | 96 | 300 | 2.0 | 7.0 | 0.00 | 0.00 | 0.00 | 58 | 1016.3 |
| 20260904174601 | 96 | 322 | 2.0 | 7.0 | 0.00 | 0.00 | 0.00 | 57 | 1016.3 |
| 20260904174054 | 96 | 278 | 1.0 | 5.0 | 0.00 | 0.00 | 0.00 | 59 | 1016.4 |
| 20260904173554 | 95 | 0 | 1.0 | 7.0 | 0.00 | 0.00 | 0.00 | 63 | 1016.5 |
| 20260904173128 | 95 | 190 | 1.0 | 7.0 | 0.00 | 0.00 | 0.00 | 60 | 1016.5 |
| 20260904172553 | 95 | 184 | 2.0 | 10.0 | 0.00 | 0.00 | 0.00 | 60 | 1016.5 |
| 20260904172054 | 95 | 273 | 3.0 | 10.0 | 0.00 | 0.00 | 0.00 | 58 | 1016.6 |
| 20260904171610 | 95 | 286 | 2.0 | 6.0 | 0.00 | 0.00 | 0.00 | 61 | 1016.6 |
| 20260904171052 | 95 | 326 | 3.0 | 7.0 | 0.00 | 0.00 | 0.00 | 59 | 1016.7 |
| 20260904170555 | 95 | 179 | 1.0 | 10.0 | 0.00 | 0.00 | 0.00 | 60 | 1016.7 |
| 20260904170059 | 95 | 0 | 3.0 | 10.0 | 0.00 | 0.00 | 0.00 | 63 | 1016.7 |
| 20260904165553 | 95 | 294 | 3.0 | 9.0 | 0.00 | 0.00 | 0.00 | 59 | 1016.8 |
| 20260904165054 | 94 | 328 | 1.0 | 9.0 | 0.00 | 0.00 | 0.00 | 62 | 1016.8 |
| 20260904164559 | 94 | 277 | 4.0 | 9.0 | 0.00 | 0.00 | 0.00 | 64 | 1016.7 |
| 20260904164053 | 94 | 328 | 2.0 | 7.0 | 0.00 | 0.00 | 0.00 | 66 | 1016.8 |
| 20260904163553 | 93 | 265 | 1.0 | 5.0 | 0.00 | 0.00 | 0.00 | 63 | 1016.8 |